Seattle, WA

5:03 AM PST on December 09, 2019 (GMT -0800)
Seattle-Tacoma International

Weather History for KSEA - November, 2019

Change the Weather History Date:

Friday, November 15, 2019

  Actual Average Record
Temperature  
Mean Temperature 52 °F 46 °F  
Max Temperature 58 °F 51 °F 64 °F (1936)
Min Temperature 46 °F 40 °F 6 °F (1955)
Degree Days  
Heating Degree Days 13 19  
Month to date heating degree days 227 268  
Since 1 July heating degree days 762 865  
Cooling Degree Days 0 0  
Month to date cooling degree days 0 0  
Year to date cooling degree days 323 189  
Growing Degree Days 2 (Base 50)    
Moisture  
Dew Point 47 °F    
Average Humidity 82    
Maximum Humidity 89    
Minimum Humidity 74    
Precipitation  
Precipitation 0.19 in 0.23 in 1.13 in (1896)
Month to date precipitation 0.76 3.19  
Year to date precipitation 24.97 28.76  
Snow  
Snow 0.00 in - 0.20 in (1975)
Month to date snowfall 0.0  
Since 1 July snowfall 0.0  
Snow Depth 0.00 in    
Sea Level Pressure  
Sea Level Pressure 30.12 in    
Wind  
Wind Speed 10 mph (South)    
Max Wind Speed 21 mph    
Max Gust Speed 26 mph    
Visibility 9 miles    
Events Rain    
T = Trace of Precipitation, MM = Missing Value Source: NWS Daily Summary

Daily Weather History Graph

Daily Weather History Graph

Search for Another Location

Airport or City:

Astronomy

Nov. 15, 2019 Rise Set
Actual Time 7:13 AM PST 4:33 PM PST
Civil Twilight 6:40 AM PST 5:06 PM PST
Nautical Twilight 6:02 AM PST 5:44 PM PST
Astronomical Twilight 5:26 AM PST 6:20 PM PST
Moon 7:05 PM PST (11/15) 10:23 AM PST (11/15)
Length of Visible Light 10h 26m
Length of Day
9h 19m
Waning Gibbous, 89% of the Moon is Illuminated
Nov 15
Waning Gibbous
Nov 19
Last Quarter
Nov 26
New
Dec 3
First Quarter
Dec 11
Full

Hourly Weather History & Observations

Time (PST) Temp. Windchill Dew Point Humidity Pressure Visibility Wind Dir Wind Speed Gust Speed Precip Events Conditions
12:53 AM 48.9 °F - 43.0 °F 80% 30.02 in 10.0 mi SE 9.2 mph - N/A   Mostly Cloudy
2:53 AM 48.0 °F - 41.0 °F 77% 30.00 in 10.0 mi SE 11.5 mph - N/A   Mostly Cloudy
3:53 AM 48.9 °F - 42.1 °F 77% 29.99 in 7.0 mi SE 6.9 mph - 0.00 in Rain Light Rain
4:53 AM 48.0 °F - 42.1 °F 80% 29.99 in 7.0 mi ESE 5.8 mph - 0.08 in Rain Light Rain
5:25 AM 46.9 °F - 43.0 °F 86% 29.97 in 5.0 mi SSE 5.8 mph - 0.05 in Rain Light Rain
5:53 AM 46.0 °F 43.1 °F 43.0 °F 89% 30.01 in 5.0 mi SSW 5.8 mph - 0.10 in Rain Light Rain
6:29 AM 46.0 °F 43.1 °F 43.0 °F 89% 29.99 in 10.0 mi South 5.8 mph - 0.01 in   Overcast
6:53 AM 46.9 °F - 43.0 °F 86% 30.02 in 10.0 mi SSE 9.2 mph - 0.01 in   Overcast
7:37 AM 46.9 °F - 44.1 °F 90% 30.00 in 10.0 mi SSE 6.9 mph - N/A   Overcast
7:53 AM 48.0 °F - 45.0 °F 89% 30.03 in 10.0 mi SSE 8.1 mph - N/A   Overcast
8:53 AM 50.0 °F - 46.9 °F 89% 30.05 in 7.0 mi SSE 10.4 mph - 0.00 in Rain Light Rain
9:53 AM 52.0 °F - 48.9 °F 89% 30.06 in 10.0 mi South 12.7 mph - 0.00 in   Overcast
10:09 AM 53.1 °F - 48.9 °F 86% 30.04 in 10.0 mi South 13.8 mph - N/A   Mostly Cloudy
10:53 AM 54.0 °F - 50.0 °F 86% 30.08 in 10.0 mi South 13.8 mph - N/A   Mostly Cloudy
11:53 AM 55.0 °F - 50.0 °F 83% 30.09 in 10.0 mi SSW 15.0 mph - N/A   Mostly Cloudy
12:53 PM 55.9 °F - 50.0 °F 80% 30.11 in 10.0 mi SSW 12.7 mph - N/A   Mostly Cloudy
1:09 PM 57.0 °F - 51.1 °F 81% 30.09 in 10.0 mi South 15.0 mph - N/A   Mostly Cloudy
1:53 PM 57.9 °F - 50.0 °F 75% 30.12 in 10.0 mi SSW 19.6 mph 25.3 mph N/A   Scattered Clouds
2:53 PM 55.9 °F - 48.9 °F 77% 30.14 in 10.0 mi SSW 13.8 mph - N/A   Mostly Cloudy
3:53 PM 55.0 °F - 48.0 °F 77% 30.16 in 10.0 mi SSW 11.5 mph - N/A   Scattered Clouds
4:53 PM 54.0 °F - 48.9 °F 83% 30.18 in 10.0 mi South 12.7 mph - N/A   Scattered Clouds
5:13 PM 54.0 °F - 48.9 °F 83% 30.16 in 10.0 mi South 9.2 mph - N/A   Mostly Cloudy
5:53 PM 53.1 °F - 48.0 °F 83% 30.20 in 10.0 mi South 9.2 mph - N/A   Mostly Cloudy
6:53 PM 52.0 °F - 48.0 °F 86% 30.23 in 10.0 mi South 10.4 mph - N/A   Mostly Cloudy
7:53 PM 52.0 °F - 46.9 °F 83% 30.25 in 10.0 mi SSW 8.1 mph - N/A   Overcast
8:11 PM 53.1 °F - 46.9 °F 80% 30.23 in 10.0 mi South 5.8 mph - N/A   Overcast
8:53 PM 53.1 °F - 46.9 °F 80% 30.27 in 10.0 mi South 4.6 mph - N/A   Overcast
9:18 PM 53.1 °F - 46.9 °F 80% 30.25 in 10.0 mi SW 6.9 mph - N/A   Overcast
9:53 PM 52.0 °F - 46.9 °F 83% 30.28 in 10.0 mi South 6.9 mph - N/A   Mostly Cloudy
10:53 PM 52.0 °F - 46.9 °F 83% 30.29 in 10.0 mi SSE 5.8 mph - N/A   Overcast
11:53 PM 52.0 °F - 46.9 °F 83% 30.30 in 10.0 mi SSW 6.9 mph - N/A   Overcast